Location: ??????
(33.3472°N, 35.4764°E)
Time: 00:59:25
(UTC+00:00)

Cosmos 2100 Rocket - Pass Details

Date: 21 August 2019
Orbit: 956 x 1001 km, 82.9° (Epoch: 17 October)

Event Time Altitude Azimuth Distance (km) Brightness Sun altitude
Rises 00:03:30 0° 352° (N) 3,721 7.5 -33.2°
Reaches altitude 10° 00:06:02 10° 352° (N) 2,772 6.8 -32.8°
Enters shadow 00:11:08 59° 340° (NNW) 1,142 4.3 -32.1°
